Probability
0 0 0 0 0 0 0 0 0 0 0 0 0 0 0 0 0 0 0 0 0 0 0 0 0 1 2 3 3 4 5 7 9 11 11 10 9 7
0 0 0 0 0 0 0 0 0 0 0 0 0 0 0 0 0 0 1 1 1 0 0 0 0 1 2 2 2 2 2 3 4 5 5 5 6 6
0 0 0 0 0 0 0 0 0 0 0 0 0 0 0 0 0 0 1 2 2 1 0 0 0 0 1 1 1 1 0 0 0 1 1 1 2 3
0 0 0 0 0 0 0 0 0 0 0 0 0 0 0 0 0 0 1 2 2 1 0 0 0 0 0 0 1 1 0 0 0 0 0 0 0 1
0 0 0 0 0 0 0 0 0 0 0 0 0 0 0 0 0 0 0 2 3 2 1 0 0 0 0 0 0 0 0 0 0 0 0 0 0 0
0 0 0 0 0 0 0 0 0 0 0 0 0 0 0 0 0 0 0 1 2 2 2 1 1 1 0 0 0 0 0 0 0 0 0 0 0 0
0 0 0 0 0 0 0 0 0 0 0 0 0 0 0 0 0 0 0 0 1 2 3 3 2 2 1 0 0 0 0 0 0 0 0 0 0 0
0 0 0 0 0 0 0 0 0 0 0 0 0 0 0 0 0 0 0 0 1 2 3 3 3 2 1 0 0 0 0 0 0 0 0 0 0 0
0 0 0 0 0 0 0 0 0 0 0 0 0 0 0 0 0 0 0 0 1 2 3 3 3 2 1 0 0 0 0 0 0 0 0 0 0 0
0 0 0 0 0 0 0 0 0 0 0 0 0 0 0 0 0 0 0 0 0 1 2 3 3 2 1 0 0 0 0 0 0 0 0 0 0 0
0 0 0 0 0 0 0 0 0 0 0 0 0 0 0 0 0 0 0 0 0 0 1 3 3 3 1 1 0 0 0 0 0 0 0 0 0 0
0 0 0 0 0 0 0 0 0 0 0 0 0 0 0 0 0 0 0 0 0 0 1 2 3 3 3 2 1 0 0 0 0 0 0 0 0 0
0 0 0 0 0 0 0 0 0 0 0 0 0 0 0 0 0 0 0 0 0 0 1 2 3 3 3 2 1 1 0 0 0 0 0 0 0 0
0 0 0 0 0 0 0 0 0 0 0 0 0 0 0 0 0 0 0 0 0 0 0 1 2 2 2 2 1 0 0 0 0 0 0 0 0 0
0 0 0 0 0 0 0 0 0 0 0 0 0 0 0 0 0 0 0 0 0 0 0 0 1 1 1 1 0 0 0 0 0 0 0 0 0 0
0 0 0 0 0 0 0 0 0 0 0 0 0 0 0 0 0 0 0 0 0 0 0 0 0 0 0 0 0 0 0 0 0 0 0 0 0 0
0 0 0 0 0 0 0 0 0 0 0 0 0 0 0 0 0 0 0 0 0 0 0 0 0 0 0 0 0 0 0 0 0 0 0 0 0 0
0 0 0 0 0 0 0 0 0 0 0 0 0 0 0 0 0 0 0 0 0 0 0 0 0 0 0 0 0 0 0 0 0 0 0 0 0 0
0 0 0 0 0 0 0 0 0 0 0 0 0 0 0 0 0 0 0 0 0 0 0 0 0 0 0 0 0 0 0 0 0 0 0 0 0 0
0 0 0 0 0 0 0 0 0 0 0 0 0 0 0 0 0 0 0 0 0 0 0 0 0 0 0 0 0 0 0 0 0 0 0 0 0 0
0 0 0 0 0 0 0 0 0 0 0 0 0 0 0 0 0 0 0 0 0 0 0 0 0 0 0 0 0 0 0 0 0 0 0 0 0 0
0 0 0 0 0 0 0 0 0 0 0 0 0 0 0 0 0 0 0 0 0 0 0 0 0 0 0 0 0 0 0 0 0 0 0 0 0 0
0 0 0 0 0 0 0 0 0 0 0 0 0 0 0 0 0 0 0 0 0 0 0 0 0 0 0 0 0 0 0 0 0 0 0 0 0 0
Wind_Speed
2 2 2 2 2 3 3 3 3 3 3 3 3 3 3 3 5 4 5 7 9 10 11 12 12 12 13 15 17 18 19 19 20 20 21 21 22 22
2 2 2 2 2 2 3 3 4 4 4 3 3 3 4 5 5 5 6 8 8 9 10 11 12 12 13 14 16 17 18 19 19 20 20 20 20 21
3 3 4 3 3 2 2 2 3 4 5 5 3 3 4 6 5 5 5 5 5 9 10 11 11 12 12 13 14 16 18 19 20 20 21 21 21 21
4 4 5 3 4 3 3 4 4 4 5 6 4 3 5 5 5 6 5 4 5 7 9 10 11 12 12 13 14 15 16 17 19 20 20 21 22 22
5 5 6 5 5 4 4 5 4 4 5 5 5 3 4 4 4 4 5 4 5 5 7 9 10 11 11 12 13 14 15 16 17 19 19 20 21 21
5 6 6 6 7 6 5 6 5 5 4 5 5 5 4 4 3 3 4 3 4 5 5 6 7 9 11 12 13 13 14 16 17 18 19 19 20 20
6 6 6 8 10 8 6 6 5 5 5 5 5 4 4 3 4 3 4 5 5 4 4 4 4 5 6 9 12 13 14 15 17 18 18 19 19 19
7 7 7 8 9 9 10 9 8 7 7 6 5 6 7 5 4 4 4 4 4 2 3 4 3 5 5 6 8 11 13 14 15 17 18 18 19 19
7 7 6 6 7 7 8 9 8 10 10 8 8 9 7 6 5 6 5 6 6 4 3 5 4 5 5 6 10 11 11 12 14 15 17 18 18 19
7 7 7 8 7 7 7 7 8 8 8 8 9 9 9 7 7 7 6 6 7 5 5 5 5 5 5 5 9 11 11 11 12 13 15 16 17 18
7 7 7 8 10 8 7 8 9 8 8 9 10 11 12 11 8 5 5 5 6 5 5 5 4 4 4 5 6 10 11 11 11 12 13 14 15 15
6 6 9 10 10 9 7 7 9 9 7 7 7 8 9 9 10 9 7 7 6 5 4 5 4 3 4 3 3 4 6 8 10 11 12 13 14 10
6 6 6 9 10 10 9 9 11 9 7 7 7 7 6 6 7 7 8 8 8 7 4 4 4 4 4 3 2 3 4 3 4 5 9 11 13 12
7 7 7 9 10 11 9 10 12 10 6 6 6 7 7 7 6 7 8 9 10 10 8 6 5 5 5 5 4 3 3 3 4 4 4 6 9 12
7 9 10 11 10 9 10 12 9 6 5 6 7 8 7 7 6 5 6 7 9 10 10 10 9 7 6 6 5 4 3 3 4 4 4 4 5 6
6 7 9 10 9 9 9 7 6 6 6 7 7 7 5 5 5 5 5 4 5 6 8 10 10 10 8 8 7 6 5 4 3 4 4 4 4 5
4 3 4 4 5 5 5 5 5 5 6 6 6 6 6 6 5 4 4 4 5 5 5 4 6 8 9 7 6 7 6 6 5 5 4 4 4 5
3 4 5 6 6 6 6 6 5 5 5 6 6 6 6 6 6 4 5 5 6 6 6 5 4 4 4 6 9 8 7 6 6 6 5 5 5 4
5 6 6 6 7 6 6 6 6 5 5 5 6 6 6 6 5 5 5 6 6 6 6 5 5 5 7 7 6 9 8 6 5 5 5 5 5 5
5 6 7 7 6 6 6 6 6 5 5 5 5 6 5 5 5 6 6 7 6 6 6 5 6 7 8 7 4 4 9 7 6 5 5 3 3 3
6 6 7 6 6 6 6 6 6 5 5 5 5 5 5 5 5 6 6 7 7 6 7 7 7 8 5 3 4 4 4 6 6 5 4 4 4 4
6 7 6 6 6 6 6 6 5 5 5 5 4 4 4 4 6 6 6 6 6 6 7 6 4 4 5 6 7 6 4 3 3 3 2 3 4 5
6 6 6 6 6 5 5 5 6 5 5 4 4 4 4 4 5 5 6 6 6 6 6 5 4 4 6 6 6 5 6 4 3 2 1 2 2 2
Wind_Direction
264 256 248 249 231 226 221 212 225 266 277 267 273 291 300 293 286 277 268 265 257 247 240 237 233 228 225 223 223 221 220 219 218 217 216 216 216 217
256 257 259 257 252 238 227 224 221 236 260 260 258 278 293 298 294 286 278 274 262 251 242 237 235 231 228 226 223 221 219 218 217 216 215 214 213 214
276 266 268 263 259 254 236 229 227 223 254 271 260 269 275 283 294 290 280 271 266 254 246 239 235 232 229 229 227 224 221 219 217 216 216 214 212 212
270 269 272 269 260 256 245 243 241 229 238 268 275 270 264 272 279 285 285 277 267 264 250 242 238 235 232 230 228 226 223 221 219 216 215 214 213 213
261 260 267 266 264 259 253 252 251 249 233 250 268 265 267 272 280 281 281 278 276 270 254 244 240 237 233 230 229 227 224 224 223 219 215 213 213 213
261 257 259 254 256 260 259 255 252 254 246 248 261 266 265 268 263 273 283 275 279 277 264 254 245 240 238 234 231 228 226 224 223 222 219 215 213 213
270 263 259 259 255 252 254 253 247 249 252 251 259 264 265 265 260 261 274 284 276 259 266 260 252 246 240 238 236 233 229 226 224 222 219 216 214 213
269 273 273 270 271 269 266 261 242 240 246 247 252 254 262 259 259 258 266 275 277 248 254 269 249 252 247 237 234 233 229 227 225 223 220 218 215 214
260 267 274 275 277 275 277 277 264 250 238 238 248 251 255 250 249 258 253 253 258 265 264 272 254 254 249 242 233 231 232 231 228 223 220 218 217 215
258 258 262 272 272 270 275 277 273 266 253 243 244 250 251 251 242 249 258 262 264 259 240 259 257 255 256 247 236 230 230 232 231 227 222 218 216 215
264 258 256 265 270 269 267 270 276 276 265 251 245 251 254 252 241 240 242 245 260 258 221 236 252 254 254 249 241 232 232 232 232 230 226 219 215 212
271 265 256 257 267 268 260 259 266 271 278 283 272 264 259 255 239 229 231 237 248 256 223 217 240 237 257 242 237 234 233 235 235 232 228 221 210 207
271 272 266 259 264 267 258 251 252 262 275 275 276 274 266 255 246 233 227 228 235 243 231 208 237 232 239 258 255 238 231 231 231 236 226 218 209 204
262 267 269 270 271 271 265 256 258 261 261 262 264 264 261 258 252 244 237 234 237 245 248 231 239 241 245 250 256 244 232 231 230 234 227 208 211 212
256 263 271 278 281 274 263 263 263 252 245 250 255 258 256 257 259 254 246 240 244 246 246 238 237 241 240 246 249 245 248 242 228 228 225 215 209 202
262 273 279 277 269 265 271 267 252 242 239 247 256 261 261 256 252 245 245 239 244 252 241 236 234 233 237 239 239 244 237 231 221 223 223 222 213 207
271 276 276 281 282 277 272 270 263 250 244 246 250 258 260 259 256 242 235 231 234 249 255 240 231 231 234 234 236 238 238 234 230 223 219 222 220 212
230 256 270 274 275 276 280 283 275 261 254 253 253 252 254 255 256 246 232 233 240 247 251 247 229 221 228 237 227 237 236 233 226 215 212 216 222 215
223 252 261 266 269 270 270 272 274 271 263 257 255 254 250 249 249 248 240 237 242 245 246 240 227 221 232 243 228 213 223 226 217 214 213 214 220 214
234 250 259 263 264 266 268 268 270 271 264 259 257 255 250 247 248 248 242 239 241 244 245 237 228 224 229 238 241 225 213 217 214 217 215 215 218 196
250 252 256 259 262 263 265 265 265 266 265 261 258 255 250 245 246 248 247 242 241 242 244 245 238 227 234 229 235 235 224 216 218 213 205 202 206 200
256 257 258 258 259 261 263 264 264 262 262 260 258 257 254 247 247 249 247 242 238 241 250 254 242 216 211 220 231 235 234 220 204 193 201 202 199 199
256 258 260 261 259 259 259 262 264 264 262 262 262 259 256 253 251 248 247 245 242 242 247 248 235 220 223 225 229 227 221 214 204 194 227 317 247 239